SL-16 DEB, 26968

Orbit data source: Space-Track

SL-16 DEB, 26968 is space debris in LEO originally from a launch on Fri, 26 Mar 1993 UTC launched from the Tyuratam Missile And Space Complex (TTMTR). Debris objects in space refer to the collection of defunct objects orbiting the Earth. Examples of debris include non-operational satellites, rocket bodies, and fragments generated from explosions, collisions, or faulty payload assembly.

Loading next visibility...
Identifier
26968, 1993-016AJ
Orbit
LEO
Country
Flag of CISCIS
Related business
Manufacturer
Unknown
Mission
Spacecraft
Bus & Motor
Unknown
Mass
Unknown
Launch date (UTC)
1993-03-26 (33 years ago)
Launch vehicle
Unknown
Launch site
Tyuratam Missile And Space Complex (TTMTR)
Object type
Payload
Rocket body
Debris
Shape & HBR
Unknown shape, 0.1 m
Radar Cross Section
Small (<0.1 m²)

Expand to show TLE details & history
Last TLE update: 15 hours ago

TLE from 15 hours ago
0 SL-16 DEB
1 26968U 93016AJ  25307.55408847  .00003206  00000-0  98192-3 0  9991
2 26968  70.9973  39.2601 0009739 244.1285 131.1734 14.42454950696754
Epoch: 2025-11-03T13:17Z
TLE epoch observation values (Epoch: 2025-11-03T13:17:53.243Z)
Latitude
14.50989°
Longitude
161.82043°
Altitude
756.682 km
Speed
7.475 km/s
True Right ascension
02h 57m 23s
True Declination
14° 25' 36"
Sunlit
Object was in full shadow at epoch
Visualization orbit readout
Latitude
Unknown
Longitude
Unknown
Altitude
Unknown
Speed
Unknown
Apparent Right ascension
Unknown
Apparent Declination
Unknown
Sunlit
N/A
Visualization observer readout
Local Sidereal Time
00:35:41
Azimuth
Unknown
Elevation
Unknown
Doppler factor
Unknown
Orbital elements
Apogee altitude
755.238 km
Perigee altitude
741.357 km
Semi-major axis
7,126.434 km
Eccentricity
0.00097
Inclination
70.9973°
RAAN
39.2601°
Arg. of periapsis
244.1285°
True anomaly
131.25734°
Mean anomaly
131.1734°
Eccentric anomaly
131.21538°
Mean motion
3.60774 °/min
Orbital period
99.79 mins
BSTAR
0.00098192
Loading maneuver chart data...
Computing Atmospheric mass density...
Loading historical data...
Loading historical data...
Loading historical data...
Loading historical data...
Loading historical data...
Loading historical data...
Loading historical data...

Documentation

Showing up to 5 results
|